Regional Weather Roundup
Issued by NWS

Home | Current Version | Previous Version | Text Only | Print | Product List | Glossary On
Versions: 1 2 3 4 5 6 7 8 9 10 11 12 13 14 15 16 17 18 19 20 21 22 23 24 25 26 27 28 29 30 31 32 33 34 35 36 37 38 39 40 41 42 43 44 45 46 47 48 49 50
000
ASUS45 KBOI 012110
RWRID
WEATHER ROUNDUP FOR IDAHO
NATIONAL WEATHER SERVICE BOISE ID
300 PM MDT MON SEP 01 2014

NOTE: "FAIR" INDICATES FEW OR NO CLOUDS BELOW 12000 FEET
WITH NO SIGNIFICANT WEATHER AND/OR OBSTRUCTIONS TO VISIBILITY

IDZ012-014-012200-
SOUTHWEST IDAHO


CITY           SKY/WX    TMP DP  RH WIND       PRES   REMARKS
BOISE          SUNNY     72  38  29 NW9G16    30.06F
CALDWELL       SUNNY     72  39  30 NW7       30.07F
MOUNTAIN HOME  SUNNY     74  39  28 N10       30.05F
$$

IDZ016-017-012200-
SOUTHCENTRAL IDAHO


CITY           SKY/WX    TMP DP  RH WIND       PRES   REMARKS
BURLEY         SUNNY     71  41  33 W10       30.08F
JEROME         SUNNY     72  40  31 SW14      30.09F
TWIN FALLS     SUNNY     73  39  29 W16       30.09F
$$

IDZ019>023-012200-
SOUTHEAST IDAHO


CITY           SKY/WX    TMP DP  RH WIND       PRES   REMARKS
IDAHO FALLS    SUNNY     70  34  26 SW9G21    30.09F
POCATELLO      MOSUNNY   73  38  27 W14       30.09F
REXBURG        SUNNY     67  39  35 SW12      30.09F
$$

IDZ006-010-011-018-031-032-012200-
CENTRAL IDAHO MOUNTAINS


CITY           SKY/WX    TMP DP  RH WIND       PRES   REMARKS
MCCALL         PTSUNNY   67  36  31 VRB6      30.10S
HAILEY         SUNNY     72  37  28 S12       30.10S
STANLEY          N/A     66  28  24 NW12      30.14F
SALMON         SUNNY     68  39  34 NE6       30.01F
CHALLIS        SUNNY     71  29  21 SE6       30.04F
$$

IDZ002-004-006-007-026-012200-
NORTHERN IDAHO


CITY           SKY/WX    TMP DP  RH WIND       PRES   REMARKS
LEWISTON       SUNNY     76  41  28 N6        30.01F
LOWELL           N/A     78  42  27 VRB6      29.99F
COEUR D`ALENE  PTSUNNY   72  41  33 W16       30.02S
MULLAN PASS    CLOUDY    51  37  58 VRB6      30.12S
$$


USA.gov is the U.S. government's official web portal to all federal, state and local government web resources and services.